SAUDISAT 1C (SO-50) (27607 NORAD) Tracking and Keplerian Element Data

This shows tracking and keplerian element data for the satellite.

Feedback or suggestion? Click here.




ElementValue
Catalog27607
NameSAUDISAT 1C (SO-50)
Epoch Orbit84741
Epoch Day266.15218608
Epoch Year2018
RAAN150.5739
Inclination64.5547
Eccentricity0.0074391
Argument of Perigee307.9689
Mean Anonmoly51.4708
Mean Motion14.75481691
Decay Rate1.2E-07
L11 27607U 02058C 18266.15218608 .00000012 00000-0 22551-4 0 9993
L22 27607 64.5547 150.5739 0074391 307.9689 51.4708 14.75481691847416

Live tracking and technical data element details for SAUDISAT 1C (SO-50) (NORAD 27607). SAUDISAT 1C (SO-50) can be tracked NOW for your location showing map with azimuth and elevation plus other details from your city location.

Track the satellite on the map from your city or location and see movement details for azimuth, elevation, latitude, longitude, range, height, and movement on the map or in text.







IsCatalogInMostPopularTable: catalog: 27607, numindb: 99
Update: records affected: 1



GetName: 27607 SAUDISAT 1C (SO-50)

Hit Count: updated at: Tue, 25 Sep 2018 15:40:13 GMT